Regional Weather Roundup
Issued by NWS Charleston, SC

Current Version | Previous Version | Graphics & Text | Print | Product List | Glossary On
Versions: 1 2 3 4 5 6 7 8 9 10 11 12 13 14 15 16 17 18 19 20 21 22 23 24 25 26 27 28 29 30 31 32 33 34 35 36 37 38 39 40 41 42 43 44 45 46 47 48 49 50
000 ASUS42 KCHS 220825 RWRCHS REGIONAL WEATHER ROUNDUP NATIONAL WEATHER SERVICE CHARLESTON SC 300 AM EST SAT NOV 22 2014 NOTE: "FAIR" INDICATES FEW OR NO CLOUDS BELOW 12,000 FEET WITH NO SIGNIFICANT WEATHER AND/OR OBSTRUCTIONS TO VISIBILITY. NOT ALL STATIONS ARE QUALITY CONTROLLED BY THE NATIONAL WEATHER SERVICE. USE DATA WITH CAUTION...ESPECIALLY DEWPOINT OBSERVATIONS. SCZ027-030-031-034>040-042>050-220900- ...SOUTH CAROLINA... CITY SKY/WX TMP DP RH WIND PRES REMARKS N CHARLESTON CLEAR 39 33 79 NE7 30.49R WCI 34 WATERFRONT PRK N/A 48 N/A N/A N15 N/A FORT JOHNSON NOT AVBL JOHNS ISLAND SUNNY 46 39 76 NE8 30.49R PINOPOLIS N/A 43 30 61 E14 30.41R MONCKS CORNER FAIR 37 30 75 NE7 30.50S WCI 32 SUMMERVILLE FAIR 34 32 93 NE3 30.51R BEAUFORT MCAS CLEAR 44 36 73 NE9 30.47R BEAUFORT ARPT FAIR 46 41 81 NE12 30.46R HILTON HEAD IS CLEAR 50 43 76 N7 30.45S GEORGETOWN NOT AVBL WALTERBORO SUNNY 41 30 65 NE6 30.50R ORANGEBURG CLEAR 38 20 48 NE5 30.50S WCI 34 BARNWELL FAIR 37 28 70 NE6 30.49S WCI 33 AIKEN FAIR 36 23 60 E3 30.52R MANNING NOT AVBL KINGSTREE NOT AVBL COLUMBIA CLEAR 39 19 44 NE5 30.51R WCI 36 SUMTER CLEAR 29 17 63 NE6 30.51S WCI 22 FLORENCE CLEAR 33 16 49 NE5 30.53S WCI 29 MYRTLE BEACH CLEAR 34 19 55 N7 30.53R WCI 28 N MYRTLE BEACH CLEAR 34 20 56 NE6 30.53R WCI 29 $$ GAZ063-065-086>088-099>101-113>116-118-119-134-136>141-150-220900- ...GEORGIA... CITY SKY/WX TMP DP RH WIND PRES REMARKS SAVANNAH ARPT CLEAR 48 40 73 NE9 30.44R HUNTER AAF NOT AVBL FORT STEWART CLEAR 49 43 79 NE9 30.40S STATESBORO NOT AVBL SYLVANIA SUNNY 44 37 75 E9 30.47R CLAXTON FAIR 45 41 87 NE7 30.44R THOMSON CLEAR 31 31 100 CALM 30.51S AUGUSTA-BUSH CLEAR 32 26 78 CALM 30.49R AUGUSTA-DANIEL CLEAR 44 24 45 E9 30.48R SWAINSBORO FAIR 46 41 81 E7 30.45R VIDALIA PTCLDY 45 43 93 NE7 30.42S ALMA CLEAR 48 42 80 VRB6 30.38S WAYCROSS MOCLDY 51 47 86 NE5 30.37S JESUP FAIR 52 46 82 NE6 30.39S BRUNSWICK N/A 55 52 88 N8 30.37S SAINT SIMONS MOCLDY 59 52 77 NE13 30.36R $$ SCZ027-028-034-036>038-045-046-048>050-GAZ119-141-220900- ...LAKE AND SUPPLEMENTAL COASTAL OBSERVATIONS... STATION/POSITION TIME TEMP WIND PRES WAVE SWELL AIR SEA DIR/SP/G HT/PER HT/PER/DIR (UTC) (F) (DEG/KT/KT) (MB) (FT/S) (FT/S/D) UPR LAKE MARION NOT AVBL WINYAH BAY 0800 48 50/ 8 1032.0S LAKE MURRAY 0700 40 60/ 2/ 6 1032.2S ACE BASIN NERRS 0800 42 30/ 3 1031.0S FORT PULASKI 0800 55 30/ 13/ 18 1030.5R SAPELO ISLAND NOT AVBL $$ ANZ835-935-AMZ111-154-330-350-352-354-374-450-454-472-220900- ...C-MAN AND BUOY OBSERVATIONS... STATION/POSITION TIME TEMP WIND PRES WAVE SWELL AIR SEA DIR/SP/G HT/PER HT/PER/DIR (UTC) (F) (DEG/KT/KT) (MB) (FT/S) (FT/S/D) FOLLY BEACH CMAN 0800 50 20/ 13/ 16 1032.3R BUOY 41004 0800 60 75 60/ 16/ 21 1030.7R 5/ 6 2/ 8 BUOY 41008 0800 65 64 50/ 21/ 23 1028.0R 5/ 6 5E ST. MARYS GA 0800 62 N/A 5/ 6 FRYING PAN BUOY 0800 53 63 60/ 14/ 17 1033.0S 4/ 5 2/130/ 8 BUOY 41025 0800 48 360/ 12/ 16 1033.7S 6/10 5/ 50/10 CAPE LOOKOUT NC 0800 42 10/ 13/ 14 1033.6F BUOY 41002 0741 61 73 40/ 14/ 17 1030.4F BUOY 41010 0800 73 78 80/ 21/ 25 1024.9F 8/ 6 2/ 40/15 BUOY 41012 NOT AVBL ST AUGUSTINE FL 0800 68 70/ 15/ 16 1025.9F CAPERS NEARSHORE 0700 55 70/ 19/ 23 N/A FRIPP NEARSHORE NOT AVBL $$

USA.gov is the U.S. government's official web portal to all federal, state and local government web resources and services.